File timestamp: Fri Sep  9 01:00:00 2016, Internal temp: 23.4222412109375
1473382801, -0.064054973423481, -0.132562518119812, 0.174260571599007, 32157, 31386, 23413, -90.6992721557617
1473382802, -0.0580464415252209, -0.132326558232307, 0.174071297049522, 32137, 31384, 23426, NaN
1473382803, -0.0515929460525513, -0.13210554420948, 0.174449503421783, 32138, 31399, 23427, NaN
1473382804, -0.0448774173855782, -0.132374376058578, 0.173744469881058, 32132, 31393, 23426, NaN
1473382805, -0.0380609668791294, -0.13146136701107, 0.172653213143349, 32147, 31393, 23423, NaN
1473382806, -0.0312835611402988, -0.131211191415787, 0.17248098552227, 32145, 31395, 23419, NaN
1473382807, -0.0246648639440536, -0.130778953433037, 0.172249883413315, 32129, 31395, 23420, NaN
1473382808, -0.018305242061615, -0.131133049726486, 0.17234779894352, 32141, 31405, 23411, NaN
1473382809, -0.0122868875041604, -0.130971789360046, 0.172639966011047, 32133, 31393, 23428, NaN
1473382810, -0.00667504221200943, -0.131387561559677, 0.173094391822815, 32131, 31404, 23424, NaN
1473382811, -0.00151928723789752, -0.131368175148964, 0.172443643212318, 32140, 31386, 23413, NaN
1473382811, 0.00314511242322624, -0.131159946322441, 0.172600775957108, 32141, 31391, 23417, NaN
1473382812.002, 0.00729584041982889, -0.1317208558321, 0.172434538602829, 32130, 31403, 23428, NaN
1473382813.002, 0.0109221516177058, -0.132106959819794, 0.172407239675522, 32150, 31394, 23417, NaN
1473382814.002, 0.0140235098078847, -0.131499692797661, 0.172644168138504, 32140, 31387, 23425, NaN
1473382815.002, 0.016608253121376, -0.131404101848602, 0.173086985945702, 32127, 31393, 23435, NaN
1473382815.002, 0.0186922959983349, -0.13179124891758, 0.173823237419128, 32144, 31390, 23414, NaN
1473382816.006, 0.0195263233035803, -0.131254076957703, 0.174634024500847, 32141, 31401, 23405, NaN
1473382817.006, 0.016871927306056, -0.130963116884232, 0.174714595079422, 32142, 31395, 23423, NaN
1473382818.006, 0.0125362472608685, -0.131053611636162, 0.174645528197289, 32156, 31390, 23419, NaN
1473382819.006, 0.00679837306961417, -0.130348742008209, 0.17416487634182, 32129, 31397, 23433, NaN
1473382819.006, -0.000429824693128467, -0.129737183451653, 0.174748912453651, 32141, 31385, 23423, NaN
1473382820.01, -0.00624897051602602, -0.129254400730133, 0.175112828612328, 32147, 31391, 23411, NaN
1473382821.01, -0.0104286884889007, -0.12962681055069, 0.174986243247986, 32142, 31390, 23422, NaN
1473382822.01, -0.0134673388674855, -0.12980443239212, 0.175197258591652, 32139, 31400, 23417, NaN
1473382823.01, -0.014925398863852, -0.129406124353409, 0.175461784005165, 32128, 31395, 23428, NaN
1473382823.01, -0.0157724339514971, -0.128856986761093, 0.175102099776268, 32138, 31400, 23431, NaN
1473382824.014, -0.0161024276167154, -0.128605559468269, 0.175086200237274, 32151, 31395, 23411, NaN
1473382825.014, -0.0156325958669186, -0.12872602045536, 0.175129443407059, 32132, 31399, 23424, NaN
1473382826.014, -0.0140003832057118, -0.128722295165062, 0.176154911518097, 32131, 31397, 23429, NaN
1473382827.014, -0.0111012235283852, -0.128930985927582, 0.175803795456886, 32138, 31381, 23419, NaN
1473382828.014, -0.00772009324282408, -0.128509417176247, 0.176785424351692, 32136, 31396, 23419, NaN
1473382829.014, -0.00270052859559655, -0.128445520997047, 0.176502838730812, 32130, 31409, 23426, NaN
1473382830.014, 0.00239185453392565, -0.128452777862549, 0.176873877644539, 32145, 31387, 23418, NaN
1473382831.014, 0.00734614115208387, -0.129057615995407, 0.176192507147789, 32146, 31390, 23421, NaN
1473382832.014, 0.0125717604532838, -0.129185825586319, 0.176620900630951, 32129, 31384, 23414, NaN
1473382833.014, 0.0180393233895302, -0.129251539707184, 0.176804006099701, 32139, 31386, 23418, NaN
1473382834.014, 0.0229666996747255, -0.12940277159214, 0.176358997821808, 32150, 31399, 23422, NaN
1473382835.014, 0.0280932858586311, -0.129768669605255, 0.17708346247673, 32127, 31387, 23428, NaN
1473382836.014, 0.0333502739667892, -0.128878086805344, 0.177692979574203, 32133, 31392, 23434, NaN
1473382837.014, 0.0387562140822411, -0.129898026585579, 0.177482262253761, 32121, 31401, 23425, NaN
1473382838.014, 0.0441627688705921, -0.130085423588753, 0.176145642995834, 32134, 31389, 23411, NaN
1473382839.014, 0.0477553717792034, -0.130136549472809, 0.175469949841499, 32140, 31395, 23414, NaN
1473382840.014, 0.0501431524753571, -0.130655944347382, 0.174404501914978, 32140, 31399, 23411, NaN
1473382841.014, 0.0529526732861996, -0.131266355514526, 0.174313127994537, 32142, 31393, 23422, NaN
1473382841.014, 0.0551700480282307, -0.131524130702019, 0.174519389867783, 32134, 31393, 23422, NaN
1473382842.022, 0.0562760382890701, -0.13255201280117, 0.173751786351204, 32138, 31394, 23417, NaN
1473382843.022, 0.0568204261362553, -0.132071390748024, 0.173112720251083, 32137, 31383, 23429, NaN
1473382844.022, 0.0557003654539585, -0.131885752081871, 0.172262609004974, 32136, 31403, 23423, NaN
1473382845.022, 0.0520205348730087, -0.133163660764694, 0.172149524092674, 32142, 31396, 23431, NaN
1473382845.022, 0.0473584085702896, -0.133437037467957, 0.172041237354279, 32136, 31381, 23420, NaN
1473382846.03, 0.0406600199639797, -0.133983254432678, 0.172363355755806, 32137, 31385, 23416, NaN
1473382847.03, 0.032967034727335, -0.134473145008087, 0.172524318099022, 32143, 31390, 23417, NaN
1473382848.03, 0.0250045247375965, -0.134523868560791, 0.172883257269859, 32136, 31388, 23427, NaN
1473382849.03, 0.0159842595458031, -0.134033158421516, 0.173615738749504, 32141, 31390, 23408, NaN
1473382850.02, 0.00769271655008197, -0.134035900235176, 0.172970607876778, 32154, 31381, 23417, NaN
1473382851.02, -0.000531533092726022, -0.134180277585983, 0.172938257455826, 32141, 31387, 23412, NaN
1473382852.02, -0.00825149565935135, -0.134463652968407, 0.173236921429634, 32130, 31399, 23432, NaN
1473382853.02, -0.0166789758950472, -0.134906142950058, 0.172516107559204, 32139, 31391, 23414, NaN
1473382854.02, -0.0243908632546663, -0.134805858135223, 0.174159571528435, 32143, 31371, 23419, NaN
1473382855.02, -0.030849052593112, -0.134736359119415, 0.17491090297699, 32137, 31397, 23430, -90.2543487548828
1473382856.02, -0.0359918996691704, -0.135361582040787, 0.174063473939896, 32117, 31391, 23432, NaN
1473382857.02, -0.0394170135259628, -0.136163830757141, 0.174467861652374, 32133, 31399, 23419, NaN
1473382858.02, -0.0408700369298458, -0.136072218418121, 0.175209909677505, 32126, 31397, 23425, NaN
1473382859.022, -0.040486752986908, -0.137245759367943, 0.17532567679882, 32139, 31395, 23427, NaN
1473382860.02, -0.0386279337108135, -0.13704414665699, 0.175747007131577, 32135, 31395, 23436, NaN
1473382861.02, -0.0364434979856014, -0.137597545981407, 0.175022795796394, 32125, 31386, 23423, NaN
1473382862.02, -0.033427145332098, -0.137620568275452, 0.175440341234207, 32128, 31398, 23434, NaN
1473382863.02, -0.0303132757544518, -0.137628868222237, 0.176426842808723, 32143, 31390, 23416, NaN
1473382864.02, -0.0245521832257509, -0.136835008859634, 0.177449777722359, 32148, 31384, 23428, NaN
1473382865.02, -0.013995629735291, -0.136963903903961, 0.177571550011635, 32146, 31403, 23427, NaN
1473382866.02, 0.00345101719722152, -0.137930944561958, 0.177877053618431, 32129, 31390, 23426, NaN
1473382867.02, 0.0270712580531836, -0.137683376669884, 0.177490457892418, 32139, 31377, 23426, NaN
1473382868.02, 0.0545291975140572, -0.138324663043022, 0.177002355456352, 32144, 31397, 23417, NaN
1473382869.02, 0.0851978287100792, -0.13746052980423, 0.17766435444355, 32139, 31386, 23422, NaN
1473382869.02, 0.118410587310791, -0.136291593313217, 0.177258267998695, 32131, 31401, 23420, NaN
1473382870.022, 0.0870373025536537, -0.136062130331993, 0.177859276533127, 32139, 31391, 23404, NaN
1473382871.022, 0.0527489371597767, -0.135298833250999, 0.177651941776276, 32136, 31398, 23424, NaN
1473382872.022, 0.0238460525870323, -0.1352369338274, 0.17866025865078, 32136, 31394, 23426, NaN
1473382873.022, -0.000129110165289603, -0.135395750403404, 0.178890824317932, 32147, 31378, 23417, NaN
1473382873.024, -0.0196237377822399, -0.13556769490242, 0.179154127836227, 32133, 31388, 23425, NaN
1473382874.024, -0.0350725650787354, -0.136696204543114, 0.17884536087513, 32138, 31386, 23406, NaN
1473382875.024, -0.04689596965909, -0.13687627017498, 0.179054766893387, 32129, 31385, 23437, NaN
1473382876.024, -0.0554981641471386, -0.137954413890839, 0.17943711578846, 32131, 31382, 23423, NaN
1473382877.024, -0.0612654909491539, -0.137905687093735, 0.17930369079113, 32138, 31394, 23429, NaN
1473382877.024, -0.0645649209618568, -0.137698873877525, 0.179857358336449, 32135, 31386, 23414, NaN
1473382878.028, -0.0657427832484245, -0.137831971049309, 0.179697647690773, 32134, 31393, 23437, NaN
1473382879.028, -0.0651236847043037, -0.138144701719284, 0.179843038320541, 32143, 31384, 23426, NaN
1473382880.028, -0.0630097165703773, -0.137577146291733, 0.179535776376724, 32130, 31390, 23426, NaN
1473382881.028, -0.0596799217164516, -0.137483522295952, 0.17907777428627, 32141, 31389, 23430, NaN
1473382881.028, -0.0553900115191936, -0.138359785079956, 0.178669050335884, 32137, 31389, 23425, NaN
1473382882.032, -0.0503723099827766, -0.139045059680939, 0.178553536534309, 32136, 31401, 23422, NaN
1473382883.032, -0.0448359474539757, -0.138429045677185, 0.179290667176247, 32129, 31395, 23432, NaN
1473382884.032, -0.0389672890305519, -0.137632548809052, 0.178861245512962, 32130, 31388, 23432, NaN
1473382885.032, -0.0329305231571198, -0.1378553211689, 0.178890347480774, 32130, 31382, 23426, NaN
1473382886.032, -0.0268684644252062, -0.136920899152756, 0.178836181759834, 32129, 31388, 23421, NaN
1473382887.032, -0.0209034718573093, -0.137359067797661, 0.17866986989975, 32138, 31397, 23423, NaN
1473382888.032, -0.0151385385543108, -0.137106463313103, 0.179425850510597, 32146, 31381, 23422, NaN
1473382889.032, -0.00965844746679068, -0.137270778417587, 0.17982405424118, 32144, 31378, 23411, NaN
1473382890.032, -0.0045310384593904, -0.137233138084412, 0.179786413908005, 32138, 31390, 23432, NaN
1473382891.032, 0.000191479542991146, -0.13664785027504, 0.179951056838036, 32135, 31389, 23423, NaN
1473382892.032, 0.00447117350995541, -0.136479288339615, 0.178881213068962, 32143, 31385, 23414, NaN
1473382893.032, 0.00828301440924406, -0.136249244213104, 0.178729727864265, 32147, 31397, 23419, NaN
1473382894.032, 0.0116135021671653, -0.135547339916229, 0.178768396377563, 32126, 31386, 23433, NaN
1473382895.032, 0.0144593119621277, -0.136439114809036, 0.179788425564766, 32124, 31392, 23426, NaN
1473382896.032, 0.016825970262289, -0.136846408247948, 0.179273083806038, 32129, 31386, 23422, NaN
1473382897.032, 0.0187265817075968, -0.136561825871468, 0.178819507360458, 32139, 31387, 23412, NaN
1473382898.032, 0.0197483189404011, -0.136143177747726, 0.178121790289879, 32140, 31398, 23409, NaN
1473382899.032, 0.0178765635937452, -0.13677890598774, 0.178079351782799, 32137, 31396, 23419, NaN
1473382899.032, 0.0139612834900618, -0.136899575591087, 0.177756100893021, 32128, 31400, 23424, NaN
1473382900.04, 0.0093134818598628, -0.137466192245483, 0.178082197904587, 32132, 31395, 23429, NaN
1473382901.04, 0.00415400741621852, -0.137940585613251, 0.17757922410965, 32137, 31397, 23409, NaN
1473382902.04, -0.000976948882453144, -0.137990549206734, 0.177295356988907, 32142, 31394, 23411, NaN
1473382903.04, -0.00463355099782348, -0.136992380023003, 0.177359580993652, 32131, 31391, 23417, NaN
1473382903.04, -0.00808350369334221, -0.137087479233742, 0.177510291337967, 32129, 31387, 23426, NaN
1473382904.048, -0.011912003159523, -0.136494234204292, 0.177467420697212, 32134, 31392, 23419, NaN
1473382905.048, -0.0153293833136559, -0.136143997311592, 0.177741751074791, 32139, 31387, 23420, NaN
1473382906.048, -0.0168718788772821, -0.136653691530228, 0.177996724843979, 32138, 31392, 23422, NaN
1473382907.048, -0.0165220443159342, -0.13658618927002, 0.177312389016151, 32120, 31385, 23417, NaN
1473382908.038, -0.0146709186956286, -0.136219322681427, 0.178221195936203, 32151, 31392, 23415, NaN
1473382909.038, -0.0120443226769567, -0.136192321777344, 0.17867024242878, 32138, 31389, 23430, -88.0444946289062
1473382910.038, -0.00884881895035505, -0.135677859187126, 0.178666308522224, 32142, 31392, 23415, NaN
1473382911.038, -0.00594431720674038, -0.134435102343559, 0.178069651126862, 32130, 31392, 23419, NaN
1473382912.038, -0.00208497350104153, -0.134580299258232, 0.178036823868752, 32149, 31385, 23417, NaN
1473382913.038, 0.00176928343717009, -0.133289009332657, 0.177104890346527, 32133, 31391, 23426, NaN
1473382914.038, 0.00646092696115375, -0.13344694674015, 0.177465870976448, 32143, 31395, 23414, NaN
1473382915.038, 0.0110997166484594, -0.133174002170563, 0.176158383488655, 32134, 31403, 23430, NaN
1473382916.038, 0.0160384885966778, -0.133766874670982, 0.176024317741394, 32129, 31386, 23423, NaN
1473382917.038, 0.0213399603962898, -0.134342208504677, 0.175285205245018, 32148, 31402, 23427, NaN
1473382918.038, 0.0262597966939211, -0.134443774819374, 0.175224080681801, 32144, 31386, 23418, NaN
1473382919.038, 0.031606312841177, -0.134093165397644, 0.175074890255928, 32123, 31398, 23440, NaN
1473382920.038, 0.0366324186325073, -0.133903130888939, 0.174999475479126, 32143, 31387, 23418, NaN
1473382921.038, 0.0422972999513149, -0.133402660489082, 0.175178229808807, 32132, 31385, 23422, NaN
1473382922.038, 0.0475270450115204, -0.133228152990341, 0.175707519054413, 32132, 31388, 23418, NaN
1473382923.038, 0.0506427958607674, -0.133150532841682, 0.175333142280579, 32140, 31398, 23424, NaN
1473382924.038, 0.0525084845721722, -0.134045735001564, 0.175591841340065, 32148, 31402, 23411, NaN
1473382925.038, 0.0535426624119282, -0.133328720927238, 0.175587758421898, 32139, 31387, 23420, NaN
1473382926.038, 0.0524483732879162, -0.133821651339531, 0.175609111785889, 32143, 31391, 23412, NaN
1473382927.038, 0.0495632141828537, -0.134275034070015, 0.175673484802246, 32129, 31396, 23434, NaN
1473382927.038, 0.0455472990870476, -0.133887186646461, 0.177283242344856, 32128, 31387, 23424, NaN
1473382928.04, 0.0411661900579929, -0.134661570191383, 0.176515251398087, 32134, 31399, 23417, NaN
1473382929.04, 0.0358402878046036, -0.133915722370148, 0.177058443427086, 32141, 31396, 23425, NaN
1473382930.04, 0.0298478323966265, -0.134291112422943, 0.176952764391899, 32129, 31388, 23432, NaN
1473382931.04, 0.0235403422266245, -0.134827181696892, 0.176490485668182, 32139, 31396, 23428, NaN
1473382931.04, 0.0174551960080862, -0.135173603892326, 0.177455708384514, 32126, 31390, 23436, NaN
1473382932.044, 0.0114006632938981, -0.135179802775383, 0.17753554880619, 32132, 31394, 23419, NaN
1473382933.044, 0.00611300859600306, -0.135388061404228, 0.176793456077576, 32146, 31398, 23423, NaN
1473382934.044, 0.000751271611079574, -0.135516867041588, 0.176674425601959, 32134, 31389, 23414, NaN
1473382935.044, -0.00413385266438127, -0.13648784160614, 0.176192909479141, 32138, 31388, 23425, NaN
1473382935.044, -0.00879997201263905, -0.136917978525162, 0.175961852073669, 32129, 31385, 23431, NaN
1473382936.048, -0.0132660213857889, -0.137014791369438, 0.176364228129387, 32150, 31392, 23415, NaN
1473382937.048, -0.015970254316926, -0.137150689959526, 0.17692805826664, 32130, 31395, 23429, NaN
1473382938.048, -0.0178331770002842, -0.137210696935654, 0.176499560475349, 32136, 31398, 23433, NaN
1473382939.048, -0.0202112849801779, -0.137351870536804, 0.176499336957932, 32147, 31395, 23418, NaN
1473382939.048, -0.0223039519041777, -0.138352319598198, 0.177307710051537, 32135, 31382, 23424, NaN
1473382940.052, -0.0234490018337965, -0.138356134295464, 0.176835626363754, 32133, 31398, 23425, NaN
1473382941.052, -0.024531576782465, -0.139303728938103, 0.176228299736977, 32130, 31389, 23427, NaN
1473382942.052, -0.0246824827045202, -0.139158621430397, 0.176736131310463, 32148, 31394, 23421, NaN
1473382943.052, -0.0250181965529919, -0.138817846775055, 0.176649451255798, 32155, 31397, 23418, NaN
1473382944.052, -0.025183605030179, -0.137765049934387, 0.176422297954559, 32135, 31393, 23427, NaN
1473382945.052, -0.0247776973992586, -0.137288704514503, 0.175978407263756, 32124, 31370, 23421, NaN
1473382946.052, -0.0246604699641466, -0.13682496547699, 0.175938680768013, 32139, 31393, 23422, NaN
1473382947.052, -0.0241791177541018, -0.136818289756775, 0.17693518102169, 32143, 31396, 23422, NaN
1473382948.052, -0.0235166773200035, -0.13714724779129, 0.176950871944427, 32139, 31396, 23425, NaN
1473382949.052, -0.0226481985300779, -0.136959582567215, 0.177241399884224, 32131, 31392, 23433, NaN
1473382950.052, -0.0212496630847454, -0.136846333742142, 0.177104949951172, 32133, 31399, 23410, NaN
1473382951.052, -0.0189951676875353, -0.136144950985909, 0.177513599395752, 32132, 31397, 23430, NaN
1473382952.052, -0.0162198022007942, -0.13601142168045, 0.177468597888947, 32131, 31388, 23414, NaN
1473382952.052, -0.0133444666862488, -0.136401459574699, 0.178150504827499, 32153, 31397, 23414, NaN
1473382953.06, -0.0100735509768128, -0.137029021978378, 0.178190141916275, 32137, 31387, 23409, NaN
1473382954.06, -0.00769687723368406, -0.136427700519562, 0.177055895328522, 32137, 31394, 23415, NaN
1473382955.06, -0.00507495179772377, -0.135993465781212, 0.176525607705116, 32138, 31390, 23409, NaN
1473382956.06, -0.00311480695381761, -0.135505229234695, 0.176199957728386, 32143, 31390, 23416, NaN
1473382956.06, -0.00248250411823392, -0.135266274213791, 0.176216930150986, 32135, 31395, 23431, NaN
1473382957.068, -0.00313534517772496, -0.134458586573601, 0.176849097013474, 32146, 31386, 23415, NaN
1473382958.068, -0.00322040100581944, -0.134073346853256, 0.176617458462715, 32155, 31375, 23415, NaN
1473382959.068, -0.00321749318391085, -0.1333047747612, 0.17676018178463, 32134, 31388, 23418, NaN
1473382960.068, -0.00282987044192851, -0.132871955633163, 0.177561834454536, 32147, 31382, 23420, NaN
1473382960.068, -0.00174079567659646, -0.132964283227921, 0.177258357405663, 32147, 31395, 23417, NaN
1473382961.076, -0.000766642799135298, -0.132976666092873, 0.177196517586708, 32131, 31389, 23434, NaN
1473382962.076, 0.000546810158994049, -0.133137449622154, 0.177080318331718, 32138, 31391, 23409, -89.2153701782227
1473382963.076, 0.00175875448621809, -0.134125739336014, 0.177115976810455, 32142, 31383, 23415, NaN
1473382964.066, 0.00466960016638041, -0.133954748511314, 0.17746390402317, 32137, 31391, 23425, NaN
1473382965.066, 0.00642045261338353, -0.1339261084795, 0.177035883069038, 32141, 31392, 23419, NaN
1473382966.066, 0.00673824781551957, -0.13301844894886, 0.176691308617592, 32140, 31388, 23432, NaN
1473382967.066, 0.00619125692173839, -0.133017748594284, 0.176720082759857, 32129, 31388, 23427, NaN
1473382968.066, 0.00630733137950301, -0.133103519678116, 0.175949171185493, 32139, 31388, 23418, NaN
1473382969.066, 0.00608692364767194, -0.132766097784042, 0.17555433511734, 32132, 31390, 23420, NaN
1473382970.066, 0.00582006573677063, -0.13262902200222, 0.17585714161396, 32121, 31393, 23422, NaN
1473382971.066, 0.00556160602718592, -0.13246200978756, 0.17448678612709, 32142, 31384, 23407, NaN
1473382972.066, 0.00610348489135504, -0.132826432585716, 0.173729985952377, 32149, 31385, 23418, NaN
1473382973.066, 0.00589595315977931, -0.133035957813263, 0.173669457435608, 32122, 31405, 23424, NaN
1473382974.066, 0.00775610934942961, -0.133262947201729, 0.173145622014999, 32134, 31388, 23420, NaN
1473382975.066, 0.0128002585843205, -0.134130075573921, 0.17241370677948, 32136, 31395, 23415, NaN
1473382976.066, 0.0210137274116278, -0.135153323411942, 0.172363013029099, 32136, 31388, 23419, NaN
1473382977.066, 0.0302544087171555, -0.134402647614479, 0.171817541122437, 32120, 31397, 23424, NaN
1473382978.066, 0.0414784029126167, -0.13428895175457, 0.172523155808449, 32133, 31389, 23423, NaN
1473382979.066, 0.054437443614006, -0.134161204099655, 0.171484485268593, 32135, 31383, 23419, NaN
1473382980.066, 0.0675749406218529, -0.133548855781555, 0.171616181731224, 32125, 31387, 23432, NaN
1473382981.066, 0.0808530822396278, -0.133860781788826, 0.17071633040905, 32137, 31388, 23422, NaN
1473382982.066, 0.0845612958073616, -0.133611604571342, 0.170126959681511, 32129, 31395, 23432, NaN
1473382983.066, 0.0529843419790268, -0.13348825275898, 0.16946168243885, 32136, 31390, 23422, NaN
1473382984.066, 0.0262227766215801, -0.134176850318909, 0.168220639228821, 32147, 31393, 23420, NaN
1473382984.066, 0.00388352968730032, -0.13425400853157, 0.168449953198433, 32141, 31389, 23420, NaN
1473382985.068, -0.0144194876775146, -0.135281682014465, 0.168081253767014, 32129, 31395, 23432, NaN
1473382986.068, -0.0290635693818331, -0.135504156351089, 0.168841049075127, 32134, 31398, 23432, NaN
1473382987.068, -0.0404153764247894, -0.136073842644691, 0.168358519673347, 32135, 31383, 23422, NaN
1473382988.068, -0.048829160630703, -0.135297402739525, 0.168319270014763, 32139, 31395, 23417, NaN
1473382988.068, -0.0546451024711132, -0.136695072054863, 0.167999625205994, 32142, 31388, 23425, NaN
1473382989.072, -0.0581877678632736, -0.136204317212105, 0.168915554881096, 32129, 31379, 23433, NaN
1473382990.072, -0.0597648173570633, -0.13573369383812, 0.16883160173893, 32130, 31390, 23425, NaN
1473382991.072, -0.0596658810973167, -0.135814905166626, 0.168485447764397, 32140, 31394, 23411, NaN
1473382992.072, -0.0581616684794426, -0.136507168412209, 0.167945131659508, 32132, 31386, 23423, NaN
1473382992.072, -0.0555033273994923, -0.136846542358398, 0.167173445224762, 32139, 31381, 23423, NaN
1473382993.076, -0.0519220195710659, -0.136537492275238, 0.167050302028656, 32138, 31385, 23416, NaN
1473382994.076, -0.0476287417113781, -0.136249408125877, 0.167051494121552, 32139, 31385, 23425, NaN
1473382995.076, -0.0428143404424191, -0.135669246315956, 0.166913911700249, 32140, 31385, 23426, NaN
1473382996.076, -0.0376497618854046, -0.135570302605629, 0.16705895960331, 32132, 31376, 23425, NaN
1473382996.076, -0.0322864577174187, -0.134819447994232, 0.166397422552109, 32136, 31392, 23422, NaN
1473382997.082, -0.0268569719046354, -0.134967222809792, 0.166471317410469, 32145, 31394, 23420, NaN
1473382998.082, -0.021475687623024, -0.134754285216331, 0.167041033506393, 32132, 31389, 23424, NaN
1473382999.082, -0.0162396840751171, -0.134562462568283, 0.167366489768028, 32125, 31394, 23428, NaN
1473383000.082, -0.0112297050654888, -0.135472908616066, 0.167320713400841, 32134, 31386, 23433, NaN
1473383001.082, -0.00651120906695724, -0.136177971959114, 0.167868241667747, 32128, 31395, 23433, NaN
1473383001.44, -0.00489419652149081, -0.136232033371925, 0.167939350008965, 32135, 31391, 23411, NaN
1473383002.44, -0.000651898910291493, -0.136540606617928, 0.167446002364159, 32143, 31400, 23436, NaN
1473383003.44, 0.00319849257357419, -0.135711073875427, 0.167563498020172, 32128, 31398, 23427, NaN
1473383004.44, 0.00663445750251412, -0.136083737015724, 0.166458830237389, 32136, 31389, 23433, NaN
1473383005.44, 0.00964366272091866, -0.135562345385551, 0.166272178292274, 32139, 31398, 23424, NaN
1473383006.44, 0.0122227780520916, -0.135823726654053, 0.16642689704895, 32134, 31382, 23419, NaN
1473383007.44, 0.0143763180822134, -0.135748013854027, 0.167250469326973, 32133, 31391, 23429, NaN
1473383008.44, 0.0161155220121145, -0.136114090681076, 0.166868582367897, 32141, 31387, 23420, NaN
1473383008.44, 0.0174572840332985, -0.135886773467064, 0.166302502155304, 32138, 31397, 23417, NaN
1473383009.448, 0.0184231288731098, -0.136028483510017, 0.16607877612114, 32141, 31388, 23424, NaN
1473383010.448, 0.0178643930703402, -0.136257708072662, 0.166242212057114, 32128, 31389, 23421, NaN
1473383011.448, 0.0163673833012581, -0.135684728622437, 0.166242837905884, 32129, 31381, 23422, NaN
1473383012.448, 0.0140990596264601, -0.135715037584305, 0.165370881557465, 32137, 31392, 23427, NaN
1473383012.448, 0.0117963217198849, -0.136492326855659, 0.165692076086998, 32148, 31386, 23419, NaN